�_�ʐ�͌���@�\�w���ɂ��Y���u�C�̈ړ���,,,,,,,,
�@,Time,Lat.,,Long.,,Direction,Speed,
Date(yy/mm/dd),(hh:mm),(deg),(min),(deg),(min),(deg),(m/s),(knots)
2004/7/21,11:40,36,46.098,137,13.314,,,
2004/7/21,11:45,36,46.146,137,13.344,23.2,0.32,0.63
2004/7/21,11:50,36,46.2,137,13.368,15.1,0.35,0.67
2004/7/21,11:55,36,46.26,137,13.422,36.6,0.46,0.9
2004/7/21,12:00,36,46.314,137,13.47,35.6,0.41,0.8
2004/7/21,12:05,36,46.362,137,13.53,46.5,0.43,0.84
2004/7/21,12:10,36,46.41,137,13.56,23.2,0.32,0.63
2004/7/21,12:15,36,46.458,137,13.638,55,0.52,1
2004/7/21,12:20,36,46.482,137,13.68,53.6,0.25,0.49
2004/7/21,12:25,36,46.524,137,13.752,56.1,0.47,0.9
2004/7/21,12:30,36,46.548,137,13.818,70.5,0.37,0.71
2004/7/21,12:35,36,46.584,137,13.908,68.3,0.53,1.03
2004/7/21,12:40,36,46.602,137,13.938,55.3,0.15,0.29
2004/7/21,12:45,36,46.632,137,14.01,67.4,0.42,0.81
2004/7/21,12:50,36,46.656,137,14.082,72.2,0.4,0.78


�A,Time,Lat.,,Long.,,Direction,Speed,
Date(yy/mm/dd),(hh:mm),(deg),(min),(deg),(min),(deg),(m/s),(knots)
2004/7/21,13:15,36,46.032,137,13.296,,,
2004/7/21,13:20,36,46.092,137,13.326,19.8,0.37,0.71
2004/7/21,13:25,36,46.152,137,13.362,22.8,0.4,0.78
2004/7/21,13:30,36,46.2,137,13.404,33.1,0.35,0.69
2004/7/21,13:35,36,46.272,137,13.47,39.6,0.54,1.06
2004/7/21,13:40,36,46.338,137,13.542,45.1,0.54,1.05


�B,Time,Lat.,,Long.,,Direction,Speed,
Date(yy/mm/dd),(hh:mm),(deg),(min),(deg),(min),(deg),(m/s),(knots)
2004/7/21,9:55,36,46.026,137,13.446,,,
2004/7/21,10:00,36,46.086,137,13.488,26.5,0.41,0.8
2004/7/21,10:05,36,46.14,137,13.542,37.8,0.42,0.82
2004/7/21,10:10,36,46.188,137,13.608,48.3,0.45,0.87
2004/7/21,10:15,36,46.224,137,13.68,59,0.43,0.84
2004/7/21,10:20,36,46.26,137,13.74,53.1,0.37,0.72
2004/7/21,10:25,36,46.284,137,13.812,67.9,0.39,0.77
2004/7/21,10:30,36,46.302,137,13.896,75.8,0.45,0.88
2004/7/21,10:35,36,46.32,137,13.962,71.3,0.35,0.67
2004/7/21,10:40,36,46.35,137,14.034,63.1,0.41,0.8
2004/7/21,10:50,36,46.392,137,14.19,72.2,0.42,0.82
2004/7/21,10:55,36,46.404,137,14.274,84.1,0.46,0.89


�C,Time,Lat.,,Long.,,Direction,Speed,
Date(yy/mm/dd),(hh:mm),(deg),(min),(deg),(min),(deg),(m/s),(knots)
2004/7/21,11:15,36,45.996,137,13.35,,,
2004/7/21,11:20,36,46.062,137,13.398,28.6,0.46,0.9
2004/7/21,11:25,36,46.122,137,13.422,10.6,0.38,0.73
2004/7/21,11:30,36,46.182,137,13.464,26,0.41,0.8
2004/7/21,11:35,36,46.224,137,13.536,54.7,0.45,0.87
2004/7/21,11:40,36,46.272,137,13.596,44.5,0.42,0.81
2004/7/21,11:45,36,46.326,137,13.68,52.8,0.55,1.07
2004/7/21,11:50,36,46.35,137,13.734,59.8,0.29,0.57
2004/7/21,11:55,36,46.38,137,13.812,66,0.46,0.89
2004/7/21,12:00,36,46.404,137,13.896,71.9,0.48,0.93
2004/7/21,12:05,36,46.428,137,13.968,68.7,0.41,0.79
2004/7/21,12:10,36,46.452,137,14.052,71.9,0.48,0.93
2004/7/21,12:15,36,46.464,137,14.13,79.6,0.41,0.8
2004/7/21,12:20,36,46.482,137,14.178,62.9,0.24,0.47
2004/7/21,12:25,36,46.488,137,14.244,88,0.34,0.66
2004/7/21,12:30,36,46.524,137,14.292,48.9,0.3,0.58
2004/7/21,12:35,36,46.518,137,14.352,101.3,0.32,0.62
2004/7/21,12:40,36,46.554,137,14.406,54.4,0.34,0.66
2004/7/21,12:45,36,46.578,137,14.46,69.8,0.36,0.69
2004/7/21,12:50,36,46.578,137,14.52,93.9,0.37,0.72
2004/7/21,12:55,36,46.59,137,14.586,83.2,0.41,0.8
2004/7/21,13:00,36,46.596,137,14.64,88,0.33,0.65


�D,Time,Lat.,,Long.,,Direction,Speed,
Date(yy/mm/dd),(hh:mm),(deg),(min),(deg),(min),(deg),(m/s),(knots)
2004/7/21,13:15,36,46.056,137,13.62,,,
2004/7/21,13:20,36,46.086,137,13.668,55.8,0.28,0.55
2004/7/21,13:25,36,46.11,137,13.722,61,0.31,0.59
2004/7/21,13:30,36,46.128,137,13.788,72,0.36,0.7
2004/7/21,13:35,36,46.152,137,13.854,70.5,0.37,0.71
2004/7/21,13:40,36,46.158,137,13.92,88.1,0.35,0.67
2004/7/21,13:45,36,46.158,137,13.992,93.8,0.38,0.75
2004/7/21,13:50,36,46.182,137,14.058,70.5,0.37,0.71
2004/7/21,13:55,36,46.176,137,14.13,99.3,0.39,0.75
2004/7/21,14:00,36,46.176,137,14.202,93.8,0.38,0.75
